Regional Weather Roundup
Issued by NWS

Home | Current Version | Previous Version | Graphics & Text | Print | Product List | Glossary On
Versions: 1 2 3 4 5 6 7 8 9 10 11 12 13 14 15 16 17 18 19 20 21 22 23 24 25 26 27 28 29 30 31 32 33 34 35 36 37 38 39 40 41 42 43 44 45 46 47 48 49 50
623
ASUS43 KFSD 272210
RWRSD

WEATHER ROUNDUP FOR SOUTH DAKOTA
NATIONAL WEATHER SERVICE SIOUX FALLS SD
500 PM CDT TUE SEP 27 2016

NOTE: "FAIR" INDICATES FEW OR NO CLOUDS BELOW 12,000 FEET WITH NO
SIGNIFICANT WEATHER AND/OR OBSTRUCTIONS TO VISIBILITY.


SDZ001>005-009-010-012>017-272300-
NORTHWEST AND NORTH CENTRAL SOUTH DAKOTA

CITY           SKY/WX    TMP DP  RH WIND       PRES   REMARKS
BUFFALO          N/A     82  39  21 NW18G26   29.91S
FAITH            N/A     82  41  23 NW14G23   29.94F
MOBRIDGE       SUNNY     77  41  27 NE15      29.90R
$$

SDZ012>016-024>037-041>051-057-063-072>074-272300-
SOUTHWEST AND SOUTH CENTRAL SOUTH DAKOTA

CITY           SKY/WX    TMP DP  RH WIND       PRES   REMARKS
RAPID CTY ARPT SUNNY     83  41  22 N20       29.98F
PIERRE         SUNNY     81  41  24 N17       29.88F
CUSTER         SUNNY     76  32  20 NW10      30.13S
ELLSWORTH AFB  SUNNY     83  41  22 N20       29.98S
PHILIP         SUNNY     85  42  22 N13G23    29.92F
PINE RIDGE     SUNNY     85  37  18 N6        29.99F
WINNER         FAIR      83  43  24 NW18G26   29.91F
$$

SDZ004>011-016>023-039-040-272300-
NORTHEAST SOUTH DAKOTA

CITY           SKY/WX    TMP DP  RH WIND       PRES   REMARKS
ABERDEEN       SUNNY     73  37  27 N16G26    29.89S
WATERTOWN      SUNNY     69  32  25 N18       29.87S
BROOKINGS      SUNNY     69  40  34 NW18      29.86S
SISSETON         N/A     69  26  20 N20G32    29.84F
$$

SDZ017-020-022-023-036>040-048>070-272300-
SOUTHEAST SOUTH DAKOTA

CITY           SKY/WX    TMP DP  RH WIND       PRES   REMARKS
SIOUX FALLS    MOSUNNY   75  44  33 NW15      29.86F
HURON          SUNNY     77  41  27 NW15      29.87F
CHAMBERLAIN    SUNNY     80  46  29 NW10      29.91S
MITCHELL       SUNNY     79  41  25 N13G21    29.88S
YANKTON        SUNNY     75  45  33 NW16      29.87S
$$

ABBREVIATIONS USED IN REMARKS
   TC - TEMPERATURE IN CELSIUS
  WCI - WIND CHILL INDEX
   HX - HEAT INDEX
  VSB - VISIBILITY





USA.gov is the U.S. government's official web portal to all federal, state and local government web resources and services.